Chippewa, MI

12:26 AM EST on December 15, 2019 (GMT -0500)
Chippewa County International

Weather History for KCIU - November, 2019

Change the Weather History Date:

Tuesday, November 12, 2019

  Actual Average Record
Temperature  
Mean Temperature 10 °F -  
Max Temperature 24 °F 38 °F 53 °F (2005)
Min Temperature -5 °F 22 °F 10 °F (1980)
Degree Days  
Heating Degree Days 56    
Moisture  
Dew Point 7 °F    
Average Humidity 83    
Maximum Humidity 92    
Minimum Humidity 51    
Precipitation  
Precipitation 0.00 in - - ()
Sea Level Pressure  
Sea Level Pressure 30.27 in    
Wind  
Wind Speed 4 mph ()    
Max Wind Speed 9 mph    
Max Gust Speed -    
Visibility 4.3 miles    
Events Snow    
Averages and records for this station are not official NWS values.
T = Trace of Precipitation, MM = Missing Value Source: Averaged Metar Reports

Daily Weather History Graph

Daily Weather History Graph

Search for Another Location

Airport or City:

Astronomy

Nov. 12, 2019 Rise Set
Actual Time 7:34 AM EST 5:08 PM EST
Civil Twilight 7:02 AM EST 5:41 PM EST
Nautical Twilight 6:25 AM EST 6:17 PM EST
Astronomical Twilight 5:50 AM EST 6:52 PM EST
Moon 5:37 PM EST (11/12) 7:22 AM EST (11/12)
Length of Visible Light 10h 39m
Length of Day
9h 34m
Full, 100% of the Moon is Illuminated
Nov 12
Full
Nov 19
Last Quarter
Nov 26
New
Dec 4
First Quarter
Dec 12
Full

Hourly Weather History & Observations

Time (EST) Temp. Windchill Dew Point Humidity Pressure Visibility Wind Dir Wind Speed Gust Speed Precip Events Conditions
12:56 AM 3.9 °F -5.3 °F -0.9 °F 80% 30.31 in 10.0 mi NE 4.6 mph - N/A   Clear
2:56 AM 1.0 °F -12.9 °F -2.0 °F 87% 30.30 in 10.0 mi NNE 8.1 mph - N/A   Clear
3:56 AM 1.0 °F -11.7 °F -2.0 °F 87% 30.30 in 10.0 mi NNE 6.9 mph - N/A   Clear
4:56 AM 1.0 °F -8.7 °F -2.9 °F 83% 30.30 in 10.0 mi NE 4.6 mph - N/A   Clear
5:56 AM -4.0 °F - -8.0 °F 83% 30.32 in 10.0 mi Calm Calm - N/A   Clear
7:56 AM -5.1 °F - -9.0 °F 83% 30.33 in 10.0 mi Calm Calm - N/A   Mostly Cloudy
8:19 AM -0.4 °F - -4.0 °F 85% 30.27 in 1.8 mi Calm Calm - 0.00 in Snow Light Snow
8:40 AM 3.2 °F -4.2 °F -0.4 °F 85% 30.27 in 2.0 mi SE 3.5 mph - 0.00 in Snow Light Snow
8:51 AM 3.2 °F - 1.4 °F 92% 30.28 in 5.0 mi Calm Calm - 0.00 in Snow Light Snow
8:56 AM 3.9 °F - 1.0 °F 88% 30.34 in 4.0 mi Calm Calm - 0.00 in Snow Light Snow
9:01 AM 5.0 °F - 1.4 °F 85% 30.28 in 2.0 mi Calm Calm - 0.00 in Snow Light Snow
9:04 AM 5.0 °F - 3.2 °F 92% 30.28 in 1.5 mi Calm Calm - 0.00 in Snow Light Snow
9:18 AM 8.6 °F - 6.8 °F 92% 30.28 in 3.0 mi Calm Calm - 0.00 in Snow Light Snow
9:56 AM 12.9 °F - 8.1 °F 81% 30.33 in 10.0 mi Calm Calm - 0.00 in   Overcast
10:28 AM 8.6 °F -1.3 °F 3.2 °F 79% 30.28 in 1.8 mi ENE 5.8 mph - 0.00 in Snow Light Snow
10:48 AM 10.4 °F -1.5 °F 3.2 °F 73% 30.28 in 0.8 mi NE 8.1 mph - 0.00 in Snow Light Snow
10:56 AM 9.0 °F -3.2 °F 3.9 °F 80% 30.33 in 1.0 mi NE 8.1 mph - 0.00 in Snow Light Snow
11:04 AM 10.4 °F -1.5 °F 3.2 °F 73% 30.27 in 1.5 mi ENE 8.1 mph - 0.00 in Snow Light Snow
11:18 AM 10.4 °F 0.8 °F 5.0 °F 79% 30.27 in 1.0 mi ENE 5.8 mph - 0.00 in Snow Light Snow
11:32 AM 12.2 °F 6.1 °F 6.8 °F 79% 30.27 in 1.5 mi NE 3.5 mph - 0.00 in Snow Light Snow
11:51 AM 14.0 °F 6.5 °F 6.8 °F 73% 30.27 in 3.0 mi NE 4.6 mph - 0.00 in Snow Light Snow
11:56 AM 14.0 °F 8.2 °F 6.1 °F 71% 30.32 in 4.0 mi NE 3.5 mph - 0.00 in Snow Light Snow
12:26 PM 15.8 °F 10.2 °F 6.8 °F 68% 30.25 in 8.0 mi NE 3.5 mph - 0.00 in Snow Light Snow
12:56 PM 18.0 °F - 7.0 °F 62% 30.30 in 10.0 mi Calm Calm - 0.00 in   Scattered Clouds
1:56 PM 24.1 °F - 8.1 °F 51% 30.29 in 10.0 mi Calm Calm - N/A   Mostly Cloudy
2:56 PM 19.0 °F 11.1 °F 9.0 °F 65% 30.30 in 1.8 mi West 5.8 mph - 0.00 in Snow Light Snow
3:35 PM 17.6 °F 9.3 °F 10.4 °F 73% 30.23 in 1.2 mi WNW 5.8 mph - 0.00 in Snow Light Snow
3:38 PM 17.6 °F 8.2 °F 10.4 °F 73% 30.23 in 2.0 mi WNW 6.9 mph - 0.00 in Snow Light Snow
3:46 PM 17.6 °F 7.3 °F 10.4 °F 73% 30.23 in 3.0 mi NW 8.1 mph - 0.00 in Snow Light Snow
3:49 PM 15.8 °F 5.1 °F 10.4 °F 79% 30.23 in 1.8 mi WNW 8.1 mph - 0.00 in Snow Light Snow
3:56 PM 16.0 °F 4.4 °F 12.0 °F 84% 30.29 in 0.8 mi WNW 9.2 mph - 0.00 in Snow Light Snow
4:24 PM 15.8 °F 5.1 °F 12.2 °F 86% 30.24 in 1.2 mi WNW 8.1 mph - 0.00 in Snow Light Snow
4:31 PM 15.8 °F 5.1 °F 12.2 °F 86% 30.24 in 3.0 mi WNW 8.1 mph - 0.00 in Snow Light Snow
4:40 PM 15.8 °F 5.1 °F 12.2 °F 86% 30.24 in 3.0 mi WNW 8.1 mph - 0.00 in Snow Light Snow
4:56 PM 16.0 °F 7.4 °F 12.9 °F 88% 30.29 in 2.0 mi NW 5.8 mph - 0.00 in Snow Light Snow
5:00 PM 15.8 °F 7.2 °F 12.2 °F 86% 30.23 in 1.2 mi WNW 5.8 mph - 0.00 in Snow Light Snow
5:08 PM 15.8 °F 7.2 °F 12.2 °F 86% 30.24 in 3.0 mi WNW 5.8 mph - 0.00 in Snow Light Snow
5:53 PM 15.8 °F 5.1 °F 12.2 °F 86% 30.24 in 4.0 mi WNW 8.1 mph - 0.00 in Snow Light Snow
5:56 PM 16.0 °F 6.3 °F 12.0 °F 84% 30.30 in 2.5 mi WNW 6.9 mph - 0.00 in Snow Light Snow
6:04 PM 15.8 °F 7.2 °F 12.2 °F 86% 30.24 in 4.0 mi WNW 5.8 mph - 0.00 in Snow Light Snow
6:14 PM 15.8 °F 8.6 °F 12.2 °F 86% 30.24 in 7.0 mi West 4.6 mph - 0.00 in Snow Light Snow
6:24 PM 15.8 °F 8.6 °F 12.2 °F 86% 30.24 in 2.5 mi West 4.6 mph - 0.00 in Snow Light Snow
6:32 PM 15.8 °F 8.6 °F 10.4 °F 79% 30.24 in 4.0 mi West 4.6 mph - 0.00 in Snow Light Snow
6:56 PM 14.0 °F 5.1 °F 10.9 °F 88% 30.30 in 9.0 mi WSW 5.8 mph - 0.00 in Snow Light Snow
7:10 PM 15.8 °F 6.1 °F 12.2 °F 86% 30.25 in 1.8 mi West 6.9 mph - 0.00 in Snow Light Snow
7:24 PM 15.8 °F 5.1 °F 12.2 °F 86% 30.25 in 3.0 mi West 8.1 mph - 0.00 in Snow Light Snow
7:48 PM 15.8 °F 10.2 °F 12.2 °F 86% 30.25 in 4.0 mi NNE 3.5 mph - 0.00 in Snow Light Snow
7:56 PM 15.1 °F - 12.0 °F 88% 30.31 in 5.0 mi Calm Calm - 0.00 in Snow Light Snow
8:23 PM 14.0 °F 8.2 °F 10.4 °F 86% 30.25 in 9.0 mi ENE 3.5 mph - 0.00 in Snow Light Snow
8:42 PM 12.2 °F 4.3 °F 10.4 °F 92% 30.25 in 6.0 mi NE 4.6 mph - 0.00 in Snow Light Snow
8:56 PM 12.9 °F 5.2 °F 10.9 °F 92% 30.31 in 5.0 mi NE 4.6 mph - 0.00 in Snow Light Snow
9:11 PM 12.2 °F 6.1 °F 10.4 °F 92% 30.25 in 2.5 mi East 3.5 mph - 0.00 in Snow Light Snow
9:21 PM 12.2 °F 2.9 °F 10.4 °F 92% 30.25 in 4.0 mi East 5.8 mph - 0.00 in Snow Light Snow
9:29 PM 12.2 °F 1.7 °F 10.4 °F 92% 30.25 in 3.0 mi East 6.9 mph - 0.00 in Snow Light Snow
9:49 PM 12.2 °F 4.3 °F 8.6 °F 85% 30.26 in 1.8 mi East 4.6 mph - 0.00 in Snow Light Snow
9:56 PM 12.0 °F 2.7 °F 9.0 °F 88% 30.31 in 2.0 mi ENE 5.8 mph - 0.00 in Snow Light Snow
10:23 PM 12.2 °F 4.3 °F 8.6 °F 85% 30.25 in 2.0 mi ENE 4.6 mph - 0.00 in Snow Light Snow
10:30 PM 12.2 °F 2.9 °F 8.6 °F 85% 30.25 in 2.5 mi ENE 5.8 mph - 0.00 in Snow Light Snow
10:41 PM 10.4 °F 0.8 °F 8.6 °F 92% 30.25 in 3.0 mi East 5.8 mph - 0.00 in Snow Light Snow
10:47 PM 10.4 °F 0.8 °F 8.6 °F 92% 30.25 in 4.0 mi East 5.8 mph - 0.00 in Snow Light Snow
10:54 PM 10.4 °F -0.4 °F 8.6 °F 92% 30.25 in 6.0 mi ENE 6.9 mph - 0.00 in Snow Light Snow
10:56 PM 10.9 °F 0.2 °F 8.1 °F 88% 30.31 in 6.0 mi ENE 6.9 mph - 0.00 in Snow Light Snow
11:56 PM 10.0 °F 3.6 °F 7.0 °F 87% 30.32 in 9.0 mi East 3.5 mph - 0.00 in Snow Light Snow